Time,TemperatureF,DewpointF,PressureIn,WindDirection,WindDirectionDegrees,WindSpeedMPH,WindSpeedGustMPH,Humidity,HourlyPrecipIn,Conditions,Clouds,dailyrainin,SoftwareType,DateUTC
2013-01-03 00:00:00,22.0,15.9,30.18,West,263,0.0,2.0,77,0.00,,---,0.00,VWS V14.01,2013-01-03 05:00:00,
2013-01-03 00:01:00,22.0,15.9,30.17,West,263,1.0,2.0,77,0.00,,---,0.00,VWS V14.01,2013-01-03 05:01:00,
2013-01-03 00:03:00,22.0,15.9,30.17,West,263,1.0,2.0,77,0.00,,---,0.00,VWS V14.01,2013-01-03 05:03:00,
2013-01-03 00:08:00,21.9,16.1,30.17,West,263,0.0,2.0,78,0.00,,---,0.00,VWS V14.01,2013-01-03 05:08:00,
2013-01-03 00:13:00,21.7,15.9,30.17,NW,324,1.0,3.0,78,0.00,,---,0.00,VWS V14.01,2013-01-03 05:13:00,
2013-01-03 00:18:00,21.6,15.8,30.17,NNW,329,2.0,3.0,78,0.00,,---,0.00,VWS V14.01,2013-01-03 05:18:00,
2013-01-03 00:24:00,21.6,15.8,30.17,WSW,247,0.0,4.0,78,0.00,,---,0.00,VWS V14.01,2013-01-03 05:24:00,
2013-01-03 00:29:00,21.6,15.8,30.17,NNW,329,0.0,4.0,78,0.00,,---,0.00,VWS V14.01,2013-01-03 05:29:00,
2013-01-03 00:30:00,21.6,15.8,30.17,NW,308,0.0,2.0,78,0.00,,---,0.00,VWS V14.01,2013-01-03 05:30:00,
2013-01-03 00:34:00,21.7,15.9,30.17,WNW,292,2.0,2.0,78,0.00,,---,0.00,VWS V14.01,2013-01-03 05:34:00,
2013-01-03 00:39:00,21.8,16.0,30.17,WNW,292,0.0,2.0,78,0.00,,---,0.00,VWS V14.01,2013-01-03 05:39:00,
2013-01-03 00:44:00,21.7,15.9,30.16,WNW,292,0.0,3.0,78,0.00,,---,0.00,VWS V14.01,2013-01-03 05:44:00,
2013-01-03 00:49:00,21.7,15.9,30.16,NW,309,0.0,3.0,78,0.00,,---,0.00,VWS V14.01,2013-01-03 05:49:00,
2013-01-03 00:54:00,21.7,15.9,30.16,NW,309,0.0,3.0,78,0.00,,---,0.00,VWS V14.01,2013-01-03 05:54:00,
2013-01-03 00:59:00,21.7,15.9,30.16,NW,322,2.0,3.0,78,0.00,,---,0.00,VWS V14.01,2013-01-03 05:59:00,
2013-01-03 01:00:00,21.4,15.6,30.17,West,262,0.0,3.0,78,0.00,,---,0.00,VWS V14.01,2013-01-03 06:00:00,
2013-01-03 01:04:00,21.7,15.9,30.17,WSW,248,0.0,2.0,78,0.00,,---,0.00,VWS V14.01,2013-01-03 06:04:00,
2013-01-03 01:09:00,21.7,15.9,30.17,West,264,0.0,2.0,78,0.00,,---,0.00,VWS V14.01,2013-01-03 06:09:00,
2013-01-03 01:14:00,21.6,15.8,30.17,West,264,0.0,2.0,78,0.00,,---,0.00,VWS V14.01,2013-01-03 06:14:00,
2013-01-03 01:19:00,21.6,15.8,30.17,West,264,0.0,2.0,78,0.00,,---,0.00,VWS V14.01,2013-01-03 06:19:00,
2013-01-03 01:25:00,21.6,15.8,30.17,West,264,0.0,2.0,78,0.00,,---,0.00,VWS V14.01,2013-01-03 06:25:00,
2013-01-03 01:30:00,21.6,15.8,30.17,NW,308,0.0,2.0,78,0.00,,---,0.00,VWS V14.01,2013-01-03 06:30:00,
2013-01-03 01:35:00,21.6,15.8,30.17,West,259,0.0,2.0,78,0.00,,---,0.00,VWS V14.01,2013-01-03 06:35:00,
2013-01-03 01:40:00,21.7,15.9,30.17,West,259,0.0,2.0,78,0.00,,---,0.00,VWS V14.01,2013-01-03 06:40:00,
2013-01-03 01:45:00,21.6,15.8,30.17,West,259,0.0,2.0,78,0.00,,---,0.00,VWS V14.01,2013-01-03 06:45:00,
2013-01-03 01:50:00,21.6,15.8,30.16,West,259,1.0,2.0,78,0.00,,---,0.00,VWS V14.01,2013-01-03 06:50:00,
2013-01-03 01:55:00,21.3,15.8,30.16,West,259,0.0,2.0,79,0.00,,---,0.00,VWS V14.01,2013-01-03 06:55:00,
2013-01-03 02:00:00,21.4,15.6,30.17,West,262,0.0,3.0,78,0.00,,---,0.00,VWS V14.01,2013-01-03 07:00:00,
2013-01-03 02:05:00,21.4,15.6,30.17,West,262,0.0,2.0,78,0.00,,---,0.00,VWS V14.01,2013-01-03 07:05:00,
2013-01-03 02:10:00,21.3,15.5,30.17,West,262,1.0,2.0,78,0.00,,---,0.00,VWS V14.01,2013-01-03 07:10:00,
2013-01-03 02:15:00,21.3,15.8,30.17,West,262,0.0,2.0,79,0.00,,---,0.00,VWS V14.01,2013-01-03 07:15:00,
2013-01-03 02:20:00,21.2,15.7,30.17,West,262,0.0,2.0,79,0.00,,---,0.00,VWS V14.01,2013-01-03 07:20:00,
2013-01-03 02:25:00,21.3,15.5,30.17,West,262,0.0,2.0,78,0.00,,---,0.00,VWS V14.01,2013-01-03 07:25:00,
2013-01-03 02:30:00,21.3,15.8,30.18,West,262,0.0,1.0,79,0.00,,---,0.00,VWS V14.01,2013-01-03 07:30:00,
2013-01-03 02:35:00,21.2,15.7,30.18,West,262,1.0,2.0,79,0.00,,---,0.00,VWS V14.01,2013-01-03 07:35:00,
2013-01-03 02:40:00,21.2,15.7,30.18,West,262,0.0,2.0,79,0.00,,---,0.00,VWS V14.01,2013-01-03 07:40:00,
2013-01-03 02:45:00,21.2,15.7,30.18,West,262,0.0,2.0,79,0.00,,---,0.00,VWS V14.01,2013-01-03 07:45:00,
2013-01-03 02:51:00,21.2,15.7,30.18,West,262,0.0,2.0,79,0.00,,---,0.00,VWS V14.01,2013-01-03 07:51:00,
2013-01-03 02:56:00,21.1,15.6,30.17,NNW,338,0.0,2.0,79,0.00,,---,0.00,VWS V14.01,2013-01-03 07:56:00,
2013-01-03 03:00:00,20.6,15.4,30.16,West,267,0.0,2.0,80,0.00,,---,0.00,VWS V14.01,2013-01-03 08:00:00,
2013-01-03 03:01:00,21.0,15.5,30.17,NNW,338,0.0,2.0,79,0.00,,---,0.00,VWS V14.01,2013-01-03 08:01:00,
2013-01-03 03:06:00,21.0,15.5,30.17,NNW,336,0.0,2.0,79,0.00,,---,0.00,VWS V14.01,2013-01-03 08:06:00,
2013-01-03 03:11:00,21.0,15.5,30.17,West,267,0.0,2.0,79,0.00,,---,0.00,VWS V14.01,2013-01-03 08:11:00,
2013-01-03 03:16:00,21.0,15.5,30.17,West,267,0.0,2.0,79,0.00,,---,0.00,VWS V14.01,2013-01-03 08:16:00,
2013-01-03 03:21:00,20.9,15.4,30.17,West,267,0.0,2.0,79,0.00,,---,0.00,VWS V14.01,2013-01-03 08:21:00,
2013-01-03 03:26:00,20.8,15.3,30.17,West,267,0.0,2.0,79,0.00,,---,0.00,VWS V14.01,2013-01-03 08:26:00,
2013-01-03 03:30:00,20.4,15.2,30.16,NW,305,0.0,2.0,80,0.00,,---,0.00,VWS V14.01,2013-01-03 08:30:00,
2013-01-03 03:31:00,20.8,15.3,30.17,West,267,0.0,1.0,79,0.00,,---,0.00,VWS V14.01,2013-01-03 08:31:00,
2013-01-03 03:36:00,20.8,15.3,30.16,West,267,0.0,1.0,79,0.00,,---,0.00,VWS V14.01,2013-01-03 08:36:00,
2013-01-03 03:41:00,20.7,15.2,30.16,West,267,0.0,1.0,79,0.00,,---,0.00,VWS V14.01,2013-01-03 08:41:00,
2013-01-03 03:47:00,20.6,15.1,30.16,West,267,0.0,1.0,79,0.00,,---,0.00,VWS V14.01,2013-01-03 08:47:00,
2013-01-03 03:52:00,20.6,15.1,30.17,West,267,0.0,1.0,79,0.00,,---,0.00,VWS V14.01,2013-01-03 08:52:00,
2013-01-03 03:57:00,20.6,15.4,30.17,West,267,0.0,2.0,80,0.00,,---,0.00,VWS V14.01,2013-01-03 08:57:00,
2013-01-03 04:00:00,20.1,14.9,30.16,NW,305,0.0,1.0,80,0.00,,---,0.00,VWS V14.01,2013-01-03 09:00:00,
2013-01-03 04:02:00,20.6,15.4,30.16,West,267,0.0,0.0,80,0.00,,---,0.00,VWS V14.01,2013-01-03 09:02:00,
2013-01-03 04:07:00,20.5,15.3,30.15,NW,305,0.0,2.0,80,0.00,,---,0.00,VWS V14.01,2013-01-03 09:07:00,
2013-01-03 04:12:00,20.5,15.3,30.16,NW,305,0.0,2.0,80,0.00,,---,0.00,VWS V14.01,2013-01-03 09:12:00,
2013-01-03 04:17:00,20.4,15.2,30.16,NW,305,0.0,2.0,80,0.00,,---,0.00,VWS V14.01,2013-01-03 09:17:00,
2013-01-03 04:22:00,20.4,15.2,30.16,NW,305,0.0,2.0,80,0.00,,---,0.00,VWS V14.01,2013-01-03 09:22:00,
2013-01-03 04:27:00,20.4,15.2,30.16,NW,305,0.0,2.0,80,0.00,,---,0.00,VWS V14.01,2013-01-03 09:27:00,
2013-01-03 04:30:00,19.5,14.9,30.16,NW,305,0.0,1.0,82,0.00,,---,0.00,VWS V14.01,2013-01-03 09:30:00,
2013-01-03 04:32:00,20.4,15.2,30.16,NW,305,0.0,1.0,80,0.00,,---,0.00,VWS V14.01,2013-01-03 09:32:00,
2013-01-03 04:37:00,20.4,15.2,30.17,NW,305,0.0,1.0,80,0.00,,---,0.00,VWS V14.01,2013-01-03 09:37:00,
2013-01-03 04:42:00,20.3,15.1,30.17,NW,305,0.0,1.0,80,0.00,,---,0.00,VWS V14.01,2013-01-03 09:42:00,
2013-01-03 04:47:00,20.3,15.1,30.17,NW,305,0.0,1.0,80,0.00,,---,0.00,VWS V14.01,2013-01-03 09:47:00,
2013-01-03 04:53:00,20.3,15.1,30.16,NW,305,0.0,1.0,80,0.00,,---,0.00,VWS V14.01,2013-01-03 09:53:00,
2013-01-03 04:58:00,20.2,15.0,30.16,NW,305,0.0,1.0,80,0.00,,---,0.00,VWS V14.01,2013-01-03 09:58:00,
2013-01-03 05:00:00,19.3,14.7,30.16,NW,305,0.0,0.0,82,0.00,,---,0.00,VWS V14.01,2013-01-03 10:00:00,
2013-01-03 05:03:00,20.0,14.8,30.16,NW,305,0.0,0.0,80,0.00,,---,0.00,VWS V14.01,2013-01-03 10:03:00,
2013-01-03 05:08:00,19.9,15.0,30.16,NW,305,0.0,0.0,81,0.00,,---,0.00,VWS V14.01,2013-01-03 10:08:00,
2013-01-03 05:13:00,19.7,14.8,30.16,NW,305,0.0,0.0,81,0.00,,---,0.00,VWS V14.01,2013-01-03 10:13:00,
2013-01-03 05:18:00,19.7,14.8,30.16,NW,305,0.0,0.0,81,0.00,,---,0.00,VWS V14.01,2013-01-03 10:18:00,
2013-01-03 05:23:00,19.7,14.8,30.16,NW,305,0.0,1.0,81,0.00,,---,0.00,VWS V14.01,2013-01-03 10:23:00,
2013-01-03 05:28:00,19.6,15.0,30.15,NW,305,0.0,1.0,82,0.00,,---,0.00,VWS V14.01,2013-01-03 10:28:00,
2013-01-03 05:30:00,18.7,14.4,30.17,NW,305,0.0,0.0,83,0.00,,---,0.00,VWS V14.01,2013-01-03 10:30:00,
2013-01-03 05:33:00,19.5,14.9,30.16,NW,305,0.0,0.0,82,0.00,,---,0.00,VWS V14.01,2013-01-03 10:33:00,
2013-01-03 05:38:00,19.4,14.8,30.16,NW,305,0.0,0.0,82,0.00,,---,0.00,VWS V14.01,2013-01-03 10:38:00,
2013-01-03 05:44:00,19.4,14.8,30.16,NW,305,0.0,0.0,82,0.00,,---,0.00,VWS V14.01,2013-01-03 10:44:00,
2013-01-03 05:49:00,19.4,14.8,30.16,NW,305,0.0,0.0,82,0.00,,---,0.00,VWS V14.01,2013-01-03 10:49:00,
2013-01-03 05:54:00,19.3,14.7,30.17,NW,305,0.0,0.0,82,0.00,,---,0.00,VWS V14.01,2013-01-03 10:54:00,
2013-01-03 05:59:00,19.3,14.7,30.16,NW,305,0.0,0.0,82,0.00,,---,0.00,VWS V14.01,2013-01-03 10:59:00,
2013-01-03 06:00:00,18.5,14.5,30.17,NW,305,0.0,1.0,84,0.00,,---,0.00,VWS V14.01,2013-01-03 11:00:00,
2013-01-03 06:04:00,19.3,14.7,30.17,NW,305,0.0,0.0,82,0.00,,---,0.00,VWS V14.01,2013-01-03 11:04:00,
2013-01-03 06:09:00,19.1,14.5,30.17,NW,305,0.0,0.0,82,0.00,,---,0.00,VWS V14.01,2013-01-03 11:09:00,
2013-01-03 06:14:00,19.0,14.7,30.17,NW,305,0.0,0.0,83,0.00,,---,0.00,VWS V14.01,2013-01-03 11:14:00,
2013-01-03 06:19:00,19.0,14.7,30.17,NW,305,0.0,0.0,83,0.00,,---,0.00,VWS V14.01,2013-01-03 11:19:00,
2013-01-03 06:24:00,18.9,14.6,30.17,NW,305,0.0,0.0,83,0.00,,---,0.00,VWS V14.01,2013-01-03 11:24:00,
2013-01-03 06:29:00,18.8,14.5,30.17,NW,305,0.0,0.0,83,0.00,,---,0.00,VWS V14.01,2013-01-03 11:29:00,
2013-01-03 06:30:00,18.6,14.3,30.17,NW,305,0.0,1.0,83,0.00,,---,0.00,VWS V14.01,2013-01-03 11:30:00,
2013-01-03 06:34:00,18.6,14.3,30.17,NW,305,0.0,0.0,83,0.00,,---,0.00,VWS V14.01,2013-01-03 11:34:00,
2013-01-03 06:40:00,18.6,14.3,30.17,NW,305,0.0,0.0,83,0.00,,---,0.00,VWS V14.01,2013-01-03 11:40:00,
2013-01-03 06:45:00,18.6,14.3,30.17,NW,305,0.0,0.0,83,0.00,,---,0.00,VWS V14.01,2013-01-03 11:45:00,
2013-01-03 06:50:00,18.6,14.3,30.17,NW,305,0.0,0.0,83,0.00,,---,0.00,VWS V14.01,2013-01-03 11:50:00,
2013-01-03 06:55:00,18.5,14.2,30.17,NW,305,0.0,0.0,83,0.00,,---,0.00,VWS V14.01,2013-01-03 11:55:00,
2013-01-03 07:00:00,18.5,14.5,30.17,NW,305,1.0,1.0,84,0.00,,---,0.00,VWS V14.01,2013-01-03 12:00:00,
2013-01-03 07:05:00,18.5,14.5,30.17,NW,305,0.0,1.0,84,0.00,,---,0.00,VWS V14.01,2013-01-03 12:05:00,
2013-01-03 07:10:00,18.5,14.5,30.17,NW,305,0.0,1.0,84,0.00,,---,0.00,VWS V14.01,2013-01-03 12:10:00,
2013-01-03 07:15:00,18.5,14.5,30.17,NW,305,0.0,1.0,84,0.00,,---,0.00,VWS V14.01,2013-01-03 12:15:00,
2013-01-03 07:20:00,18.5,14.2,30.17,NW,305,0.0,1.0,83,0.00,,---,0.00,VWS V14.01,2013-01-03 12:20:00,
2013-01-03 07:25:00,18.5,14.2,30.17,NW,305,0.0,1.0,83,0.00,,---,0.00,VWS V14.01,2013-01-03 12:25:00,
2013-01-03 07:30:00,18.6,14.3,30.17,NW,305,0.0,0.0,83,0.00,,---,0.00,VWS V14.01,2013-01-03 12:30:00,
2013-01-03 07:35:00,18.5,14.2,30.16,NW,305,0.0,1.0,83,0.00,,---,0.00,VWS V14.01,2013-01-03 12:35:00,
2013-01-03 07:41:00,18.4,14.1,30.17,NW,305,0.0,1.0,83,0.00,,---,0.00,VWS V14.01,2013-01-03 12:41:00,
2013-01-03 07:46:00,18.3,14.0,30.16,NW,305,0.0,1.0,83,0.00,,---,0.00,VWS V14.01,2013-01-03 12:46:00,
2013-01-03 07:51:00,18.2,14.2,30.17,NW,305,0.0,1.0,84,0.00,,---,0.00,VWS V14.01,2013-01-03 12:51:00,
2013-01-03 07:56:00,18.3,14.3,30.17,NW,305,0.0,1.0,84,0.00,,---,0.00,VWS V14.01,2013-01-03 12:56:00,
2013-01-03 08:00:00,18.8,14.5,30.17,NW,305,1.0,2.0,83,0.00,,---,0.00,VWS V14.01,2013-01-03 13:00:00,
2013-01-03 08:01:00,18.6,14.3,30.17,NW,305,0.0,0.0,83,0.00,,---,0.00,VWS V14.01,2013-01-03 13:01:00,
2013-01-03 08:06:00,18.6,14.3,30.17,NW,305,0.0,1.0,83,0.00,,---,0.00,VWS V14.01,2013-01-03 13:06:00,
2013-01-03 08:11:00,18.6,14.3,30.17,NW,305,0.0,1.0,83,0.00,,---,0.00,VWS V14.01,2013-01-03 13:11:00,
2013-01-03 08:16:00,18.6,14.3,30.17,NW,305,0.0,1.0,83,0.00,,---,0.00,VWS V14.01,2013-01-03 13:16:00,
2013-01-03 08:21:00,18.6,14.3,30.17,NW,305,0.0,1.0,83,0.00,,---,0.00,VWS V14.01,2013-01-03 13:21:00,
2013-01-03 08:26:00,18.6,14.3,30.17,NW,305,0.0,1.0,83,0.00,,---,0.00,VWS V14.01,2013-01-03 13:26:00,
2013-01-03 08:30:00,19.7,15.1,30.18,NW,305,0.0,2.0,82,0.00,,---,0.00,VWS V14.01,2013-01-03 13:30:00,
2013-01-03 08:31:00,18.5,14.2,30.17,NW,305,0.0,0.0,83,0.00,,---,0.00,VWS V14.01,2013-01-03 13:31:00,
2013-01-03 08:36:00,18.5,14.2,30.17,NW,305,0.0,0.0,83,0.00,,---,0.00,VWS V14.01,2013-01-03 13:36:00,
2013-01-03 08:41:00,18.6,14.3,30.17,NW,305,0.0,2.0,83,0.00,,---,0.00,VWS V14.01,2013-01-03 13:41:00,
2013-01-03 08:46:00,18.6,14.3,30.17,NW,305,0.0,2.0,83,0.00,,---,0.00,VWS V14.01,2013-01-03 13:46:00,
2013-01-03 08:52:00,18.7,14.4,30.17,NW,305,0.0,2.0,83,0.00,,---,0.00,VWS V14.01,2013-01-03 13:52:00,
2013-01-03 08:57:00,18.8,14.5,30.17,NW,305,0.0,2.0,83,0.00,,---,0.00,VWS V14.01,2013-01-03 13:57:00,
2013-01-03 09:00:00,20.9,15.7,30.19,NW,305,0.0,2.0,80,0.00,,---,0.00,VWS V14.01,2013-01-03 14:00:00,
2013-01-03 09:02:00,18.8,14.5,30.17,NW,305,0.0,1.0,83,0.00,,---,0.00,VWS V14.01,2013-01-03 14:02:00,
2013-01-03 09:07:00,18.9,14.3,30.17,NW,305,0.0,2.0,82,0.00,,---,0.00,VWS V14.01,2013-01-03 14:07:00,
2013-01-03 09:12:00,19.1,14.5,30.18,NW,305,0.0,2.0,82,0.00,,---,0.00,VWS V14.01,2013-01-03 14:12:00,
2013-01-03 09:17:00,19.4,14.8,30.18,NW,305,0.0,2.0,82,0.00,,---,0.00,VWS V14.01,2013-01-03 14:17:00,
2013-01-03 09:22:00,19.7,15.1,30.18,NW,305,1.0,2.0,82,0.00,,---,0.00,VWS V14.01,2013-01-03 14:22:00,
2013-01-03 09:27:00,19.7,15.1,30.18,NW,305,0.0,2.0,82,0.00,,---,0.00,VWS V14.01,2013-01-03 14:27:00,
2013-01-03 09:30:00,21.7,15.6,30.17,SW,234,0.0,4.0,77,0.00,,---,0.00,VWS V14.01,2013-01-03 14:30:00,
2013-01-03 09:33:00,19.9,15.3,30.18,NW,305,0.0,2.0,82,0.00,,---,0.00,VWS V14.01,2013-01-03 14:33:00,
2013-01-03 09:38:00,20.1,15.2,30.19,NW,305,0.0,2.0,81,0.00,,---,0.00,VWS V14.01,2013-01-03 14:38:00,
2013-01-03 09:43:00,20.4,15.5,30.19,NW,305,0.0,2.0,81,0.00,,---,0.00,VWS V14.01,2013-01-03 14:43:00,
2013-01-03 09:48:00,20.5,15.3,30.19,NW,305,0.0,2.0,80,0.00,,---,0.00,VWS V14.01,2013-01-03 14:48:00,
2013-01-03 09:53:00,20.7,15.5,30.19,NW,305,0.0,2.0,80,0.00,,---,0.00,VWS V14.01,2013-01-03 14:53:00,
2013-01-03 09:58:00,20.9,15.7,30.19,NW,305,0.0,2.0,80,0.00,,---,0.00,VWS V14.01,2013-01-03 14:58:00,
2013-01-03 10:00:00,22.6,16.2,30.16,NW,309,0.0,3.0,76,0.00,,---,0.00,VWS V14.01,2013-01-03 15:00:00,
2013-01-03 10:03:00,21.0,15.8,30.19,NW,305,0.0,0.0,80,0.00,,---,0.00,VWS V14.01,2013-01-03 15:03:00,
2013-01-03 10:08:00,21.2,15.7,30.18,West,268,0.0,4.0,79,0.00,,---,0.00,VWS V14.01,2013-01-03 15:08:00,
2013-01-03 10:13:00,21.3,15.5,30.18,West,269,0.0,4.0,78,0.00,,---,0.00,VWS V14.01,2013-01-03 15:13:00,
2013-01-03 10:18:00,21.4,15.6,30.18,SW,234,0.0,4.0,78,0.00,,---,0.00,VWS V14.01,2013-01-03 15:18:00,
2013-01-03 10:23:00,21.5,15.7,30.18,SW,234,0.0,4.0,78,0.00,,---,0.00,VWS V14.01,2013-01-03 15:23:00,
2013-01-03 10:28:00,21.6,15.8,30.17,SW,234,2.0,4.0,78,0.00,,---,0.00,VWS V14.01,2013-01-03 15:28:00,
2013-01-03 10:30:00,23.9,16.2,30.15,NW,323,1.0,5.0,72,0.00,,---,0.00,VWS V14.01,2013-01-03 15:30:00,
2013-01-03 10:33:00,21.7,15.9,30.17,SW,234,0.0,0.0,78,0.00,,---,0.00,VWS V14.01,2013-01-03 15:33:00,
2013-01-03 10:38:00,21.9,15.8,30.17,WNW,287,0.0,2.0,77,0.00,,---,0.00,VWS V14.01,2013-01-03 15:38:00,
2013-01-03 10:43:00,22.1,16.0,30.17,WSW,242,1.0,3.0,77,0.00,,---,0.00,VWS V14.01,2013-01-03 15:43:00,
2013-01-03 10:48:00,22.2,16.1,30.17,WNW,298,0.0,3.0,77,0.00,,---,0.00,VWS V14.01,2013-01-03 15:48:00,
2013-01-03 10:54:00,22.4,16.3,30.17,NW,309,3.0,3.0,77,0.00,,---,0.00,VWS V14.01,2013-01-03 15:54:00,
2013-01-03 10:59:00,22.5,16.4,30.16,NW,309,0.0,3.0,77,0.00,,---,0.00,VWS V14.01,2013-01-03 15:59:00,
2013-01-03 11:00:00,24.7,16.3,30.13,SW,236,0.0,6.0,70,0.00,,---,0.00,VWS V14.01,2013-01-03 16:00:00,
2013-01-03 11:04:00,22.6,16.2,30.16,NW,309,0.0,2.0,76,0.00,,---,0.00,VWS V14.01,2013-01-03 16:04:00,
2013-01-03 11:09:00,22.9,16.2,30.16,West,259,0.0,3.0,75,0.00,,---,0.00,VWS V14.01,2013-01-03 16:09:00,
2013-01-03 11:14:00,23.2,16.5,30.15,NNW,337,1.0,3.0,75,0.00,,---,0.00,VWS V14.01,2013-01-03 16:14:00,
2013-01-03 11:19:00,23.5,16.8,30.15,NNW,336,0.0,3.0,75,0.00,,---,0.00,VWS V14.01,2013-01-03 16:19:00,
2013-01-03 11:24:00,23.8,16.7,30.15,West,266,2.0,3.0,74,0.00,,---,0.00,VWS V14.01,2013-01-03 16:24:00,
2013-01-03 11:29:00,23.9,16.2,30.15,NNW,340,3.0,5.0,72,0.00,,---,0.00,VWS V14.01,2013-01-03 16:29:00,
2013-01-03 11:30:00,25.2,17.1,30.11,West,266,0.0,7.0,71,0.00,,---,0.00,VWS V14.01,2013-01-03 16:30:00,
2013-01-03 11:34:00,23.9,16.2,30.15,NNW,333,0.0,5.0,72,0.00,,---,0.00,VWS V14.01,2013-01-03 16:34:00,
2013-01-03 11:40:00,23.8,16.4,30.14,NNW,336,1.0,5.0,73,0.00,,---,0.00,VWS V14.01,2013-01-03 16:40:00,
2013-01-03 11:45:00,24.1,16.4,30.14,NNW,345,0.0,5.0,72,0.00,,---,0.00,VWS V14.01,2013-01-03 16:45:00,
2013-01-03 11:50:00,24.5,16.8,30.13,SW,232,0.0,5.0,72,0.00,,---,0.00,VWS V14.01,2013-01-03 16:50:00,
2013-01-03 11:55:00,24.9,16.8,30.13,NNW,346,2.0,6.0,71,0.00,,---,0.00,VWS V14.01,2013-01-03 16:55:00,
2013-01-03 12:00:00,24.7,16.3,30.13,SW,236,0.0,6.0,70,0.00,,---,0.00,VWS V14.01,2013-01-03 17:00:00,
2013-01-03 12:05:00,24.7,16.3,30.13,West,269,1.0,7.0,70,0.00,,---,0.00,VWS V14.01,2013-01-03 17:05:00,
2013-01-03 12:10:00,24.8,16.4,30.12,WNW,286,0.0,7.0,70,0.00,,---,0.00,VWS V14.01,2013-01-03 17:10:00,
2013-01-03 12:15:00,24.8,16.4,30.12,West,267,0.0,7.0,70,0.00,,---,0.00,VWS V14.01,2013-01-03 17:15:00,
2013-01-03 12:20:00,24.9,16.5,30.12,NNW,329,3.0,7.0,70,0.00,,---,0.00,VWS V14.01,2013-01-03 17:20:00,
2013-01-03 12:25:00,25.1,16.7,30.11,WSW,238,2.0,7.0,70,0.00,,---,0.00,VWS V14.01,2013-01-03 17:25:00,
2013-01-03 12:30:00,25.3,17.2,30.11,West,266,2.0,3.0,71,0.00,,---,0.00,VWS V14.01,2013-01-03 17:30:00,
2013-01-03 12:35:00,25.4,17.0,30.11,SW,229,0.0,7.0,70,0.00,,---,0.00,VWS V14.01,2013-01-03 17:35:00,
2013-01-03 12:40:00,25.5,17.1,30.10,WSW,246,1.0,7.0,70,0.00,,---,0.00,VWS V14.01,2013-01-03 17:40:00,
2013-01-03 12:46:00,25.5,16.8,30.10,SW,221,0.0,7.0,69,0.00,,---,0.00,VWS V14.01,2013-01-03 17:46:00,
2013-01-03 12:51:00,25.7,17.3,30.10,West,277,0.0,7.0,70,0.00,,---,0.00,VWS V14.01,2013-01-03 17:51:00,
2013-01-03 12:56:00,25.7,17.0,30.10,West,275,0.0,7.0,69,0.00,,---,0.00,VWS V14.01,2013-01-03 17:56:00,
2013-01-03 13:00:00,26.3,17.5,30.08,West,267,5.0,7.0,69,0.00,,---,0.00,VWS V14.01,2013-01-03 18:00:00,
2013-01-03 13:01:00,25.6,16.9,30.10,SW,232,2.0,4.0,69,0.00,,---,0.00,VWS V14.01,2013-01-03 18:01:00,
2013-01-03 13:06:00,25.7,17.0,30.09,WSW,255,0.0,5.0,69,0.00,,---,0.00,VWS V14.01,2013-01-03 18:06:00,
2013-01-03 13:11:00,25.8,17.0,30.09,WNW,292,1.0,5.0,69,0.00,,---,0.00,VWS V14.01,2013-01-03 18:11:00,
2013-01-03 13:16:00,25.8,16.7,30.09,WSW,249,0.0,5.0,68,0.00,,---,0.00,VWS V14.01,2013-01-03 18:16:00,
2013-01-03 13:21:00,25.8,17.4,30.08,West,268,2.0,5.0,70,0.00,,---,0.00,VWS V14.01,2013-01-03 18:21:00,
2013-01-03 13:27:00,25.9,17.1,30.09,SW,228,3.0,5.0,69,0.00,,---,0.00,VWS V14.01,2013-01-03 18:27:00,
2013-01-03 13:30:00,26.9,17.8,30.07,West,267,0.0,5.0,68,0.00,,---,0.00,VWS V14.01,2013-01-03 18:30:00,
2013-01-03 13:32:00,26.0,17.2,30.09,West,266,0.0,2.0,69,0.00,,---,0.00,VWS V14.01,2013-01-03 18:32:00,
2013-01-03 13:37:00,26.2,17.4,30.08,NW,324,0.0,4.0,69,0.00,,---,0.00,VWS V14.01,2013-01-03 18:37:00,
2013-01-03 13:42:00,26.2,17.1,30.09,West,261,2.0,4.0,68,0.00,,---,0.00,VWS V14.01,2013-01-03 18:42:00,
2013-01-03 13:47:00,26.1,17.0,30.09,WNW,297,2.0,5.0,68,0.00,,---,0.00,VWS V14.01,2013-01-03 18:47:00,
2013-01-03 13:52:00,26.2,17.1,30.08,West,274,1.0,5.0,68,0.00,,---,0.00,VWS V14.01,2013-01-03 18:52:00,
2013-01-03 13:57:00,26.2,17.1,30.08,NNW,336,1.0,6.0,68,0.00,,---,0.00,VWS V14.01,2013-01-03 18:57:00,
2013-01-03 14:02:00,26.3,17.2,30.08,WNW,290,3.0,5.0,68,0.00,,---,0.00,VWS V14.01,2013-01-03 19:02:00,
2013-01-03 14:07:00,26.3,17.5,30.08,West,275,2.0,5.0,69,0.00,,---,0.00,VWS V14.01,2013-01-03 19:07:00,
2013-01-03 14:12:00,26.5,17.7,30.08,SW,220,2.0,5.0,69,0.00,,---,0.00,VWS V14.01,2013-01-03 19:12:00,
2013-01-03 14:17:00,26.8,18.0,30.07,West,281,0.0,5.0,69,0.00,,---,0.00,VWS V14.01,2013-01-03 19:17:00,
2013-01-03 14:55:00,26.8,17.7,30.07,WSW,240,1.0,5.0,68,0.00,,---,0.00,VWS V14.01,2013-01-03 19:55:00,
2013-01-03 15:00:00,27.0,17.9,30.07,NW,319,1.0,5.0,68,0.00,,---,0.00,VWS V14.01,2013-01-03 20:00:00,
2013-01-03 15:05:00,27.0,17.9,30.07,West,269,0.0,4.0,68,0.00,,---,0.00,VWS V14.01,2013-01-03 20:05:00,
2013-01-03 15:10:00,26.9,17.8,30.07,SW,220,0.0,6.0,68,0.00,,---,0.00,VWS V14.01,2013-01-03 20:10:00,
2013-01-03 15:15:00,26.9,17.4,30.07,WSW,257,0.0,6.0,67,0.00,,---,0.00,VWS V14.01,2013-01-03 20:15:00,
2013-01-03 15:20:00,26.8,17.7,30.07,SW,225,0.0,6.0,68,0.00,,---,0.00,VWS V14.01,2013-01-03 20:20:00,
2013-01-03 15:25:00,26.9,17.8,30.07,WSW,257,2.0,6.0,68,0.00,,---,0.00,VWS V14.01,2013-01-03 20:25:00,
2013-01-03 15:30:00,26.9,17.8,30.07,SW,219,2.0,2.0,68,0.00,,---,0.00,VWS V14.01,2013-01-03 20:30:00,
2013-01-03 15:35:00,26.9,17.8,30.07,SW,219,0.0,3.0,68,0.00,,---,0.00,VWS V14.01,2013-01-03 20:35:00,
2013-01-03 15:40:00,26.9,17.8,30.07,SW,216,0.0,3.0,68,0.00,,---,0.00,VWS V14.01,2013-01-03 20:40:00,
2013-01-03 15:45:00,26.9,17.8,30.07,West,267,1.0,4.0,68,0.00,,---,0.00,VWS V14.01,2013-01-03 20:45:00,
2013-01-03 15:50:00,27.0,17.9,30.08,West,271,1.0,4.0,68,0.00,,---,0.00,VWS V14.01,2013-01-03 20:50:00,
2013-01-03 15:55:00,27.0,17.5,30.08,SW,232,0.0,4.0,67,0.00,,---,0.00,VWS V14.01,2013-01-03 20:55:00,
2013-01-03 16:00:00,25.9,17.1,30.08,SSW,213,0.0,4.0,69,0.00,,---,0.00,VWS V14.01,2013-01-03 21:00:00,
2013-01-03 16:01:00,27.0,17.5,30.08,South,189,3.0,6.0,67,0.00,,---,0.00,VWS V14.01,2013-01-03 21:01:00,
2013-01-03 16:06:00,26.9,17.4,30.08,West,281,0.0,6.0,67,0.00,,---,0.00,VWS V14.01,2013-01-03 21:06:00,
2013-01-03 16:11:00,26.9,17.4,30.08,WSW,247,0.0,6.0,67,0.00,,---,0.00,VWS V14.01,2013-01-03 21:11:00,
2013-01-03 16:16:00,26.9,17.4,30.08,West,272,2.0,6.0,67,0.00,,---,0.00,VWS V14.01,2013-01-03 21:16:00,
2013-01-03 16:21:00,26.9,17.4,30.08,WNW,294,2.0,6.0,67,0.00,,---,0.00,VWS V14.01,2013-01-03 21:21:00,
2013-01-03 16:26:00,26.7,17.2,30.08,West,277,0.0,6.0,67,0.00,,---,0.00,VWS V14.01,2013-01-03 21:26:00,
2013-01-03 16:30:00,25.5,17.1,30.09,WSW,237,0.0,3.0,70,0.00,,---,0.00,VWS V14.01,2013-01-03 21:30:00,
2013-01-03 16:31:00,26.5,17.4,30.08,West,277,2.0,2.0,68,0.00,,---,0.00,VWS V14.01,2013-01-03 21:31:00,
2013-01-03 16:36:00,26.4,17.3,30.08,SW,219,2.0,4.0,68,0.00,,---,0.00,VWS V14.01,2013-01-03 21:36:00,
2013-01-03 16:41:00,26.3,17.2,30.08,SW,233,1.0,4.0,68,0.00,,---,0.00,VWS V14.01,2013-01-03 21:41:00,
2013-01-03 16:46:00,26.3,17.5,30.08,SW,229,0.0,4.0,69,0.00,,---,0.00,VWS V14.01,2013-01-03 21:46:00,
2013-01-03 16:52:00,26.1,17.3,30.08,SW,229,0.0,4.0,69,0.00,,---,0.00,VWS V14.01,2013-01-03 21:52:00,
2013-01-03 16:57:00,25.9,17.1,30.08,SW,229,0.0,4.0,69,0.00,,---,0.00,VWS V14.01,2013-01-03 21:57:00,
2013-01-03 17:02:00,25.9,17.5,30.09,SSW,213,0.0,1.0,70,0.00,,---,0.00,VWS V14.01,2013-01-03 22:02:00,
2013-01-03 17:07:00,25.7,17.3,30.09,SW,218,1.0,2.0,70,0.00,,---,0.00,VWS V14.01,2013-01-03 22:07:00,
2013-01-03 17:12:00,25.6,17.2,30.09,SW,218,0.0,2.0,70,0.00,,---,0.00,VWS V14.01,2013-01-03 22:12:00,
2013-01-03 17:17:00,25.4,17.0,30.09,SSW,207,1.0,2.0,70,0.00,,---,0.00,VWS V14.01,2013-01-03 22:17:00,
2013-01-03 17:22:00,25.4,17.0,30.09,SSW,207,0.0,2.0,70,0.00,,---,0.00,VWS V14.01,2013-01-03 22:22:00,
2013-01-03 17:27:00,25.5,17.1,30.09,WSW,237,0.0,3.0,70,0.00,,---,0.00,VWS V14.01,2013-01-03 22:27:00,
2013-01-03 17:32:00,25.4,17.3,30.09,WSW,237,0.0,1.0,71,0.00,,---,0.00,VWS V14.01,2013-01-03 22:32:00,
2013-01-03 17:37:00,25.4,17.3,30.09,SW,226,3.0,3.0,71,0.00,,---,0.00,VWS V14.01,2013-01-03 22:37:00,
2013-01-03 17:42:00,25.4,17.3,30.09,SW,219,0.0,3.0,71,0.00,,---,0.00,VWS V14.01,2013-01-03 22:42:00,
2013-01-03 17:47:00,25.4,17.3,30.09,SSW,211,1.0,3.0,71,0.00,,---,0.00,VWS V14.01,2013-01-03 22:47:00,
2013-01-03 17:53:00,25.4,17.3,30.09,SW,215,0.0,4.0,71,0.00,,---,0.00,VWS V14.01,2013-01-03 22:53:00,
2013-01-03 17:58:00,25.3,17.2,30.09,SSW,209,0.0,4.0,71,0.00,,---,0.00,VWS V14.01,2013-01-03 22:58:00,
2013-01-03 18:00:00,25.6,17.8,30.09,SW,219,1.0,5.0,72,0.00,,---,0.00,VWS V14.01,2013-01-03 23:00:00,
2013-01-03 18:03:00,25.0,16.9,30.09,SSW,209,0.0,2.0,71,0.00,,---,0.00,VWS V14.01,2013-01-03 23:03:00,
2013-01-03 18:08:00,25.0,17.3,30.09,SW,224,0.0,2.0,72,0.00,,---,0.00,VWS V14.01,2013-01-03 23:08:00,
2013-01-03 18:13:00,25.0,17.3,30.09,SW,224,0.0,2.0,72,0.00,,---,0.00,VWS V14.01,2013-01-03 23:13:00,
2013-01-03 18:18:00,25.0,17.3,30.09,SW,225,0.0,2.0,72,0.00,,---,0.00,VWS V14.01,2013-01-03 23:18:00,
2013-01-03 18:23:00,25.0,17.3,30.09,West,275,1.0,4.0,72,0.00,,---,0.00,VWS V14.01,2013-01-03 23:23:00,
2013-01-03 18:28:00,25.1,17.4,30.09,WSW,254,0.0,4.0,72,0.00,,---,0.00,VWS V14.01,2013-01-03 23:28:00,
2013-01-03 18:30:00,26.0,18.2,30.10,West,265,3.0,4.0,72,0.00,,---,0.00,VWS V14.01,2013-01-03 23:30:00,
2013-01-03 18:33:00,25.1,17.4,30.09,WSW,254,1.0,1.0,72,0.00,,---,0.00,VWS V14.01,2013-01-03 23:33:00,
2013-01-03 18:38:00,25.2,17.5,30.09,WNW,296,2.0,3.0,72,0.00,,---,0.00,VWS V14.01,2013-01-03 23:38:00,
2013-01-03 18:44:00,25.4,17.6,30.09,WNW,296,0.0,3.0,72,0.00,,---,0.00,VWS V14.01,2013-01-03 23:44:00,
2013-01-03 18:49:00,25.5,17.8,30.09,West,267,0.0,3.0,72,0.00,,---,0.00,VWS V14.01,2013-01-03 23:49:00,
2013-01-03 18:54:00,25.5,17.8,30.09,WNW,282,3.0,5.0,72,0.00,,---,0.00,VWS V14.01,2013-01-03 23:54:00,
2013-01-03 18:59:00,25.6,17.8,30.09,SW,228,1.0,5.0,72,0.00,,---,0.00,VWS V14.01,2013-01-03 23:59:00,
2013-01-03 19:04:00,25.6,17.8,30.09,SW,220,0.0,2.0,72,0.00,,---,0.00,VWS V14.01,2013-01-04 00:04:00,
2013-01-03 19:09:00,25.7,17.9,30.09,WSW,243,0.0,3.0,72,0.00,,---,0.00,VWS V14.01,2013-01-04 00:09:00,
2013-01-03 19:14:00,25.7,17.6,30.10,WNW,288,2.0,3.0,71,0.00,,---,0.00,VWS V14.01,2013-01-04 00:14:00,
2013-01-03 19:19:00,25.9,17.8,30.10,SW,232,0.0,4.0,71,0.00,,---,0.00,VWS V14.01,2013-01-04 00:19:00,
2013-01-03 19:24:00,26.0,17.9,30.10,SW,231,0.0,4.0,71,0.00,,---,0.00,VWS V14.01,2013-01-04 00:24:00,
2013-01-03 19:29:00,26.0,18.2,30.10,West,266,1.0,4.0,72,0.00,,---,0.00,VWS V14.01,2013-01-04 00:29:00,
2013-01-03 19:30:00,25.7,18.3,30.09,WNW,292,0.0,5.0,73,0.00,,---,0.00,VWS V14.01,2013-01-04 00:30:00,
2013-01-03 19:34:00,26.0,18.2,30.10,WSW,246,0.0,3.0,72,0.00,,---,0.00,VWS V14.01,2013-01-04 00:34:00,
2013-01-03 19:39:00,26.1,18.3,30.10,WSW,250,2.0,4.0,72,0.00,,---,0.00,VWS V14.01,2013-01-04 00:39:00,
2013-01-03 19:44:00,26.2,18.1,30.10,West,271,0.0,4.0,71,0.00,,---,0.00,VWS V14.01,2013-01-04 00:44:00,
2013-01-03 19:49:00,26.2,18.4,30.10,West,263,1.0,5.0,72,0.00,,---,0.00,VWS V14.01,2013-01-04 00:49:00,
2013-01-03 19:54:00,26.2,18.4,30.10,WNW,286,2.0,5.0,72,0.00,,---,0.00,VWS V14.01,2013-01-04 00:54:00,
2013-01-03 19:59:00,26.2,18.4,30.10,WNW,294,2.0,5.0,72,0.00,,---,0.00,VWS V14.01,2013-01-04 00:59:00,
2013-01-03 20:05:00,26.2,18.4,30.10,West,269,1.0,5.0,72,0.00,,---,0.00,VWS V14.01,2013-01-04 01:05:00,
2013-01-03 20:10:00,26.2,18.4,30.10,West,260,1.0,5.0,72,0.00,,---,0.00,VWS V14.01,2013-01-04 01:10:00,
2013-01-03 20:15:00,26.1,18.3,30.10,WNW,287,0.0,5.0,72,0.00,,---,0.00,VWS V14.01,2013-01-04 01:15:00,
2013-01-03 20:20:00,26.0,18.2,30.10,WNW,282,0.0,5.0,72,0.00,,---,0.00,VWS V14.01,2013-01-04 01:20:00,
2013-01-03 20:25:00,25.8,18.0,30.09,West,274,0.0,5.0,72,0.00,,---,0.00,VWS V14.01,2013-01-04 01:25:00,
2013-01-03 20:30:00,25.7,18.3,30.09,WNW,292,0.0,0.0,73,0.00,,---,0.00,VWS V14.01,2013-01-04 01:30:00,
2013-01-03 20:35:00,25.6,18.2,30.09,WSW,253,0.0,2.0,73,0.00,,---,0.00,VWS V14.01,2013-01-04 01:35:00,
2013-01-03 20:40:00,25.5,18.1,30.09,WSW,253,0.0,2.0,73,0.00,,---,0.00,VWS V14.01,2013-01-04 01:40:00,
2013-01-03 20:45:00,25.5,18.4,30.09,West,269,0.0,2.0,74,0.00,,---,0.00,VWS V14.01,2013-01-04 01:45:00,
2013-01-03 20:51:00,25.5,18.4,30.09,West,269,0.0,2.0,74,0.00,,---,0.00,VWS V14.01,2013-01-04 01:51:00,
2013-01-03 20:56:00,25.5,18.7,30.09,SW,234,0.0,3.0,75,0.00,,---,0.00,VWS V14.01,2013-01-04 01:56:00,
2013-01-03 21:00:00,26.9,20.4,30.08,West,269,1.0,10.0,76,0.00,,---,0.00,VWS V14.01,2013-01-04 02:00:00,
2013-01-03 21:01:00,25.5,18.7,30.08,WSW,250,1.0,3.0,75,0.00,,---,0.00,VWS V14.01,2013-01-04 02:01:00,
2013-01-03 21:06:00,25.6,18.8,30.09,WSW,250,0.0,3.0,75,0.00,,---,0.00,VWS V14.01,2013-01-04 02:06:00,
2013-01-03 21:11:00,25.7,19.2,30.08,WNW,284,2.0,3.0,76,0.00,,---,0.00,VWS V14.01,2013-01-04 02:11:00,
2013-01-03 21:16:00,25.9,19.1,30.08,WSW,246,1.0,5.0,75,0.00,,---,0.00,VWS V14.01,2013-01-04 02:16:00,
2013-01-03 21:21:00,26.1,19.3,30.08,WNW,290,4.0,5.0,75,0.00,,---,0.00,VWS V14.01,2013-01-04 02:21:00,
2013-01-03 21:26:00,26.2,19.7,30.08,SW,225,2.0,6.0,76,0.00,,---,0.00,VWS V14.01,2013-01-04 02:26:00,
2013-01-03 21:30:00,27.3,20.4,30.08,West,259,1.0,7.0,75,0.00,,---,0.00,VWS V14.01,2013-01-04 02:30:00,
2013-01-03 21:31:00,26.3,19.5,30.08,WSW,254,1.0,4.0,75,0.00,,---,0.00,VWS V14.01,2013-01-04 02:31:00,
2013-01-03 21:36:00,26.4,19.6,30.08,West,269,0.0,5.0,75,0.00,,---,0.00,VWS V14.01,2013-01-04 02:36:00,
2013-01-03 21:41:00,26.5,19.7,30.08,West,268,3.0,5.0,75,0.00,,---,0.00,VWS V14.01,2013-01-04 02:41:00,
2013-01-03 21:46:00,26.6,19.8,30.08,WSW,256,1.0,9.0,75,0.00,,---,0.00,VWS V14.01,2013-01-04 02:46:00,
2013-01-03 21:52:00,26.7,20.2,30.08,WNW,285,2.0,10.0,76,0.00,,---,0.00,VWS V14.01,2013-01-04 02:52:00,
2013-01-03 21:57:00,26.8,20.3,30.08,West,279,2.0,10.0,76,0.00,,---,0.00,VWS V14.01,2013-01-04 02:57:00,
2013-01-03 22:00:00,27.6,20.7,30.08,WNW,294,0.0,5.0,75,0.00,,---,0.00,VWS V14.01,2013-01-04 03:00:00,
2013-01-03 22:02:00,27.0,20.5,30.08,NW,310,3.0,5.0,76,0.00,,---,0.00,VWS V14.01,2013-01-04 03:02:00,
2013-01-03 22:07:00,27.1,20.5,30.08,WSW,237,0.0,7.0,76,0.00,,---,0.00,VWS V14.01,2013-01-04 03:07:00,
2013-01-03 22:12:00,27.2,20.3,30.08,West,269,3.0,7.0,75,0.00,,---,0.00,VWS V14.01,2013-01-04 03:12:00,
2013-01-03 22:17:00,27.2,20.3,30.08,WNW,288,1.0,7.0,75,0.00,,---,0.00,VWS V14.01,2013-01-04 03:17:00,
2013-01-03 22:22:00,27.2,20.6,30.08,WNW,289,2.0,7.0,76,0.00,,---,0.00,VWS V14.01,2013-01-04 03:22:00,
2013-01-03 22:27:00,27.3,20.4,30.09,WSW,237,1.0,7.0,75,0.00,,---,0.00,VWS V14.01,2013-01-04 03:27:00,
2013-01-03 22:30:00,28.0,21.1,30.07,WSW,246,0.0,7.0,75,0.00,,---,0.00,VWS V14.01,2013-01-04 03:30:00,
2013-01-03 22:32:00,27.4,20.5,30.09,West,259,0.0,2.0,75,0.00,,---,0.00,VWS V14.01,2013-01-04 03:32:00,
2013-01-03 22:37:00,27.4,20.8,30.09,WSW,240,1.0,5.0,76,0.00,,---,0.00,VWS V14.01,2013-01-04 03:37:00,
2013-01-03 22:42:00,27.4,20.5,30.09,SW,227,1.0,5.0,75,0.00,,---,0.00,VWS V14.01,2013-01-04 03:42:00,
2013-01-03 22:47:00,27.4,20.5,30.08,West,266,3.0,5.0,75,0.00,,---,0.00,VWS V14.01,2013-01-04 03:47:00,
2013-01-03 22:53:00,27.5,20.6,30.08,West,266,0.0,5.0,75,0.00,,---,0.00,VWS V14.01,2013-01-04 03:53:00,
2013-01-03 22:58:00,27.5,20.6,30.08,WNW,292,0.0,5.0,75,0.00,,---,0.00,VWS V14.01,2013-01-04 03:58:00,
2013-01-03 23:00:00,28.5,21.3,30.06,NW,321,2.0,7.0,74,0.00,,---,0.00,VWS V14.01,2013-01-04 04:00:00,
2013-01-03 23:03:00,27.6,20.7,30.08,West,274,3.0,7.0,75,0.00,,---,0.00,VWS V14.01,2013-01-04 04:03:00,
2013-01-03 23:08:00,27.7,20.8,30.08,West,259,0.0,7.0,75,0.00,,---,0.00,VWS V14.01,2013-01-04 04:08:00,
2013-01-03 23:13:00,27.8,20.9,30.08,West,268,1.0,7.0,75,0.00,,---,0.00,VWS V14.01,2013-01-04 04:13:00,
2013-01-03 23:18:00,27.8,20.9,30.08,WNW,290,0.0,7.0,75,0.00,,---,0.00,VWS V14.01,2013-01-04 04:18:00,
2013-01-03 23:23:00,28.0,21.1,30.08,West,260,0.0,7.0,75,0.00,,---,0.00,VWS V14.01,2013-01-04 04:23:00,
2013-01-03 23:28:00,28.0,21.1,30.07,SW,229,5.0,7.0,75,0.00,,---,0.00,VWS V14.01,2013-01-04 04:28:00,
2013-01-03 23:30:00,28.3,21.1,30.05,SW,227,0.0,5.0,74,0.00,,---,0.00,VWS V14.01,2013-01-04 04:30:00,
2013-01-03 23:33:00,28.1,21.2,30.07,West,275,0.0,4.0,75,0.00,,---,0.00,VWS V14.01,2013-01-04 04:33:00,
2013-01-03 23:38:00,28.2,21.3,30.06,West,264,0.0,4.0,75,0.00,,---,0.00,VWS V14.01,2013-01-04 04:38:00,
2013-01-03 23:43:00,28.1,21.2,30.06,WSW,238,0.0,4.0,75,0.00,,---,0.00,VWS V14.01,2013-01-04 04:43:00,
2013-01-03 23:48:00,28.3,21.4,30.06,West,271,0.0,6.0,75,0.00,,---,0.00,VWS V14.01,2013-01-04 04:48:00,
2013-01-03 23:53:00,28.3,21.1,30.06,WSW,243,0.0,6.0,74,0.00,,---,0.00,VWS V14.01,2013-01-04 04:53:00,
2013-01-03 23:58:00,28.5,21.3,30.06,West,270,1.0,7.0,74,0.00,,---,0.00,VWS V14.01,2013-01-04 04:58:00,